Time,TemperatureF,DewpointF,PressureIn,WindDirection,WindDirectionDegrees,WindSpeedMPH,WindSpeedGustMPH,Humidity,HourlyPrecipIn,Conditions,Clouds,dailyrainin,SoftwareType,DateUTC
2013-01-22 00:02:00,12.0,-99.9,-100.00,WNW,289,1.0,-999.0,-999,0.00,,,0.00,,2013-01-22 06:02:00,
2013-01-22 00:12:00,12.0,-99.9,-100.00,WNW,289,1.0,-999.0,-999,0.00,,,0.00,,2013-01-22 06:12:00,
2013-01-22 00:22:00,12.0,-99.9,-100.00,WNW,289,1.0,-999.0,-999,0.00,,,0.00,,2013-01-22 06:22:00,
2013-01-22 00:33:00,12.0,-99.9,-100.00,South,175,2.0,-999.0,-999,0.00,,,0.00,,2013-01-22 06:33:00,
2013-01-22 00:43:00,12.0,-99.9,-100.00,South,175,2.0,-999.0,-999,0.00,,,0.00,,2013-01-22 06:43:00,
2013-01-22 00:53:00,12.0,-99.9,-100.00,South,175,2.0,-999.0,-999,0.00,,,0.00,,2013-01-22 06:53:00,
2013-01-22 01:03:00,11.0,-99.9,-100.00,South,182,2.0,-999.0,-999,0.00,,,0.00,,2013-01-22 07:03:00,
2013-01-22 01:12:00,11.0,-99.9,-100.00,South,182,2.0,-999.0,-999,0.00,,,0.00,,2013-01-22 07:12:00,
2013-01-22 01:23:00,11.0,-99.9,-100.00,South,182,2.0,-999.0,-999,0.00,,,0.00,,2013-01-22 07:23:00,
2013-01-22 01:33:00,11.0,-99.9,-100.00,SSW,212,2.0,-999.0,-999,0.00,,,0.00,,2013-01-22 07:33:00,
2013-01-22 01:43:00,11.0,-99.9,-100.00,SSW,212,2.0,-999.0,-999,0.00,,,0.00,,2013-01-22 07:43:00,
2013-01-22 01:53:00,11.0,-99.9,-100.00,SSW,212,2.0,-999.0,-999,0.00,,,0.00,,2013-01-22 07:53:00,
2013-01-22 02:02:00,11.0,-99.9,-100.00,West,261,1.0,-999.0,-999,0.00,,,0.00,,2013-01-22 08:02:00,
2013-01-22 02:12:00,11.0,-99.9,-100.00,West,261,1.0,-999.0,-999,0.00,,,0.00,,2013-01-22 08:12:00,
2013-01-22 02:23:00,11.0,-99.9,-100.00,West,261,1.0,-999.0,-999,0.00,,,0.00,,2013-01-22 08:23:00,
2013-01-22 02:33:00,11.0,-99.9,-100.00,WSW,237,3.0,-999.0,-999,0.00,,,0.00,,2013-01-22 08:33:00,
2013-01-22 02:43:00,11.0,-99.9,-100.00,WSW,237,3.0,-999.0,-999,0.00,,,0.00,,2013-01-22 08:43:00,
2013-01-22 02:53:00,11.0,-99.9,-100.00,WSW,237,3.0,-999.0,-999,0.00,,,0.00,,2013-01-22 08:53:00,
2013-01-22 03:02:00,12.0,-99.9,-100.00,West,276,5.0,-999.0,-999,0.00,,,0.00,,2013-01-22 09:02:00,
2013-01-22 03:12:00,12.0,-99.9,-100.00,West,276,5.0,-999.0,-999,0.00,,,0.00,,2013-01-22 09:12:00,
2013-01-22 03:23:00,12.0,-99.9,-100.00,West,276,5.0,-999.0,-999,0.00,,,0.00,,2013-01-22 09:23:00,
2013-01-22 03:33:00,14.0,-99.9,-100.00,NNW,335,11.0,-999.0,-999,0.00,,,0.00,,2013-01-22 09:33:00,
2013-01-22 03:43:00,14.0,-99.9,-100.00,NNW,335,11.0,-999.0,-999,0.00,,,0.00,,2013-01-22 09:43:00,
2013-01-22 03:53:00,14.0,-99.9,-100.00,NNW,335,11.0,-999.0,-999,0.00,,,0.00,,2013-01-22 09:53:00,
2013-01-22 04:03:00,14.0,-99.9,-100.00,NNW,338,15.0,-999.0,-999,0.00,,,0.00,,2013-01-22 10:03:00,
2013-01-22 04:12:00,14.0,-99.9,-100.00,NNW,338,15.0,-999.0,-999,0.00,,,0.00,,2013-01-22 10:12:00,
2013-01-22 04:22:00,14.0,-99.9,-100.00,NNW,338,15.0,-999.0,-999,0.00,,,0.00,,2013-01-22 10:22:00,
2013-01-22 04:33:00,14.0,-99.9,-100.00,NNW,331,15.0,-999.0,-999,0.00,,,0.00,,2013-01-22 10:33:00,
2013-01-22 04:43:00,14.0,-99.9,-100.00,NNW,331,15.0,-999.0,-999,0.00,,,0.00,,2013-01-22 10:43:00,
2013-01-22 04:53:00,14.0,-99.9,-100.00,NNW,331,15.0,-999.0,-999,0.00,,,0.00,,2013-01-22 10:53:00,
2013-01-22 05:03:00,12.0,-99.9,-100.00,North,353,11.0,-999.0,-999,0.00,,,0.00,,2013-01-22 11:03:00,
2013-01-22 05:12:00,12.0,-99.9,-100.00,North,353,11.0,-999.0,-999,0.00,,,0.00,,2013-01-22 11:12:00,
2013-01-22 05:23:00,12.0,-99.9,-100.00,North,353,11.0,-999.0,-999,0.00,,,0.00,,2013-01-22 11:23:00,
2013-01-22 05:33:00,11.0,-99.9,-100.00,North,349,11.0,-999.0,-999,0.00,,,0.00,,2013-01-22 11:33:00,
2013-01-22 05:43:00,11.0,-99.9,-100.00,North,349,11.0,-999.0,-999,0.00,,,0.00,,2013-01-22 11:43:00,
2013-01-22 05:54:00,11.0,-99.9,-100.00,North,349,11.0,-999.0,-999,0.00,,,0.00,,2013-01-22 11:54:00,
2013-01-22 06:04:00,10.0,-99.9,-100.00,North,350,9.0,-999.0,-999,0.00,,,0.00,,2013-01-22 12:04:00,
2013-01-22 06:13:00,10.0,-99.9,-100.00,North,350,9.0,-999.0,-999,0.00,,,0.00,,2013-01-22 12:13:00,
2013-01-22 06:23:00,10.0,-99.9,-100.00,North,350,9.0,-999.0,-999,0.00,,,0.00,,2013-01-22 12:23:00,
2013-01-22 06:33:00,10.0,-99.9,-100.00,North,354,9.0,-999.0,-999,0.00,,,0.00,,2013-01-22 12:33:00,
2013-01-22 06:43:00,10.0,-99.9,-100.00,North,354,9.0,-999.0,-999,0.00,,,0.00,,2013-01-22 12:43:00,
2013-01-22 06:53:00,10.0,-99.9,-100.00,North,354,9.0,-999.0,-999,0.00,,,0.00,,2013-01-22 12:53:00,
2013-01-22 07:04:00,10.0,-99.9,-100.00,North,349,9.0,-999.0,-999,0.00,,,0.00,,2013-01-22 13:04:00,
2013-01-22 07:14:00,10.0,-99.9,-100.00,North,349,9.0,-999.0,-999,0.00,,,0.00,,2013-01-22 13:14:00,
2013-01-22 07:24:00,10.0,-99.9,-100.00,North,349,9.0,-999.0,-999,0.00,,,0.00,,2013-01-22 13:24:00,
2013-01-22 07:34:00,10.0,-99.9,-100.00,North,2,9.0,-999.0,-999,0.00,,,0.00,,2013-01-22 13:34:00,
2013-01-22 07:43:00,10.0,-99.9,-100.00,North,2,9.0,-999.0,-999,0.00,,,0.00,,2013-01-22 13:43:00,
2013-01-22 07:54:00,10.0,-99.9,-100.00,North,2,9.0,-999.0,-999,0.00,,,0.00,,2013-01-22 13:54:00,
2013-01-22 08:03:00,10.0,-99.9,-100.00,North,352,7.0,-999.0,-999,0.00,,,0.00,,2013-01-22 14:03:00,
2013-01-22 08:13:00,10.0,-99.9,-100.00,North,352,7.0,-999.0,-999,0.00,,,0.00,,2013-01-22 14:13:00,
2013-01-22 08:23:00,10.0,-99.9,-100.00,North,352,7.0,-999.0,-999,0.00,,,0.00,,2013-01-22 14:23:00,
2013-01-22 08:34:00,10.0,-99.9,-100.00,NNW,345,6.0,-999.0,-999,0.00,,,0.00,,2013-01-22 14:34:00,
2013-01-22 08:45:00,10.0,-99.9,-100.00,NNW,345,6.0,-999.0,-999,0.00,,,0.00,,2013-01-22 14:45:00,
2013-01-22 08:54:00,10.0,-99.9,-100.00,NNW,345,6.0,-999.0,-999,0.00,,,0.00,,2013-01-22 14:54:00,
2013-01-22 09:04:00,10.0,-99.9,-100.00,NNW,344,5.0,-999.0,-999,0.00,,,0.00,,2013-01-22 15:04:00,
2013-01-22 09:13:00,10.0,-99.9,-100.00,NNW,344,5.0,-999.0,-999,0.00,,,0.00,,2013-01-22 15:13:00,
2013-01-22 09:24:00,10.0,-99.9,-100.00,NNW,344,5.0,-999.0,-999,0.00,,,0.00,,2013-01-22 15:24:00,
2013-01-22 09:34:00,11.0,-99.9,-100.00,NNW,335,5.0,-999.0,-999,0.00,,,0.00,,2013-01-22 15:34:00,
2013-01-22 09:44:00,11.0,-99.9,-100.00,NNW,335,5.0,-999.0,-999,0.00,,,0.00,,2013-01-22 15:44:00,
2013-01-22 09:54:00,11.0,-99.9,-100.00,NNW,335,5.0,-999.0,-999,0.00,,,0.00,,2013-01-22 15:54:00,
2013-01-22 10:04:00,11.0,-99.9,-100.00,North,354,5.0,-999.0,-999,0.00,,,0.00,,2013-01-22 16:04:00,
2013-01-22 10:14:00,11.0,-99.9,-100.00,North,354,5.0,-999.0,-999,0.00,,,0.00,,2013-01-22 16:14:00,
2013-01-22 10:24:00,11.0,-99.9,-100.00,North,354,5.0,-999.0,-999,0.00,,,0.00,,2013-01-22 16:24:00,
2013-01-22 10:34:00,12.0,-99.9,-100.00,NNW,345,4.0,-999.0,-999,0.00,,,0.00,,2013-01-22 16:34:00,
2013-01-22 10:44:00,12.0,-99.9,-100.00,NNW,345,4.0,-999.0,-999,0.00,,,0.00,,2013-01-22 16:44:00,
2013-01-22 10:54:00,12.0,-99.9,-100.00,NNW,345,4.0,-999.0,-999,0.00,,,0.00,,2013-01-22 16:54:00,
2013-01-22 11:04:00,11.0,-99.9,-100.00,NNW,333,5.0,-999.0,-999,0.00,,,0.00,,2013-01-22 17:04:00,
2013-01-22 11:13:00,11.0,-99.9,-100.00,NNW,333,5.0,-999.0,-999,0.00,,,0.00,,2013-01-22 17:13:00,
2013-01-22 11:24:00,11.0,-99.9,-100.00,NNW,333,5.0,-999.0,-999,0.00,,,0.00,,2013-01-22 17:24:00,
2013-01-22 11:35:00,13.0,-99.9,-100.00,West,266,2.0,-999.0,-999,0.00,,,0.00,,2013-01-22 17:35:00,
2013-01-22 11:44:00,13.0,-99.9,-100.00,West,266,2.0,-999.0,-999,0.00,,,0.00,,2013-01-22 17:44:00,
2013-01-22 11:54:00,13.0,-99.9,-100.00,West,266,2.0,-999.0,-999,0.00,,,0.00,,2013-01-22 17:54:00,
2013-01-22 12:04:00,13.0,-99.9,-100.00,SW,235,1.0,-999.0,-999,0.00,,,0.00,,2013-01-22 18:04:00,
2013-01-22 12:13:00,13.0,-99.9,-100.00,SW,235,1.0,-999.0,-999,0.00,,,0.00,,2013-01-22 18:13:00,
2013-01-22 12:24:00,13.0,-99.9,-100.00,SW,235,1.0,-999.0,-999,0.00,,,0.00,,2013-01-22 18:24:00,
2013-01-22 12:34:00,13.0,-99.9,-100.00,SSW,211,2.0,-999.0,-999,0.00,,,0.00,,2013-01-22 18:34:00,
2013-01-22 12:44:00,13.0,-99.9,-100.00,SSW,211,2.0,-999.0,-999,0.00,,,0.00,,2013-01-22 18:44:00,
2013-01-22 12:54:00,13.0,-99.9,-100.00,SSW,211,2.0,-999.0,-999,0.00,,,0.00,,2013-01-22 18:54:00,
2013-01-22 13:04:00,13.0,-99.9,-100.00,SSW,207,3.0,-999.0,-999,0.00,,,0.00,,2013-01-22 19:04:00,
2013-01-22 13:14:00,13.0,-99.9,-100.00,SSW,207,3.0,-999.0,-999,0.00,,,0.00,,2013-01-22 19:14:00,
2013-01-22 13:24:00,13.0,-99.9,-100.00,SSW,207,3.0,-999.0,-999,0.00,,,0.00,,2013-01-22 19:24:00,
2013-01-22 13:34:00,15.0,-99.9,-100.00,NE,42,2.0,-999.0,-999,0.00,,,0.00,,2013-01-22 19:34:00,
2013-01-22 13:44:00,15.0,-99.9,-100.00,NE,42,2.0,-999.0,-999,0.00,,,0.00,,2013-01-22 19:44:00,
2013-01-22 13:54:00,15.0,-99.9,-100.00,NE,42,2.0,-999.0,-999,0.00,,,0.00,,2013-01-22 19:54:00,
2013-01-22 14:04:00,15.0,-99.9,-100.00,WSW,256,1.0,-999.0,-999,0.00,,,0.00,,2013-01-22 20:04:00,
2013-01-22 14:13:00,15.0,-99.9,-100.00,WSW,256,1.0,-999.0,-999,0.00,,,0.00,,2013-01-22 20:13:00,
2013-01-22 14:23:00,15.0,-99.9,-100.00,WSW,256,1.0,-999.0,-999,0.00,,,0.00,,2013-01-22 20:23:00,
2013-01-22 14:34:00,16.0,-99.9,-100.00,North,5,5.0,-999.0,-999,0.00,,,0.00,,2013-01-22 20:34:00,
2013-01-22 14:43:00,16.0,-99.9,-100.00,North,5,5.0,-999.0,-999,0.00,,,0.00,,2013-01-22 20:43:00,
2013-01-22 14:54:00,16.0,-99.9,-100.00,North,5,5.0,-999.0,-999,0.00,,,0.00,,2013-01-22 20:54:00,
2013-01-22 15:04:00,17.0,-99.9,-100.00,NNE,14,4.0,-999.0,-999,0.00,,,0.00,,2013-01-22 21:04:00,
2013-01-22 15:14:00,17.0,-99.9,-100.00,NNE,14,4.0,-999.0,-999,0.00,,,0.00,,2013-01-22 21:14:00,
2013-01-22 15:23:00,17.0,-99.9,-100.00,NNE,14,4.0,-999.0,-999,0.00,,,0.00,,2013-01-22 21:23:00,
2013-01-22 15:34:00,17.0,-99.9,-100.00,NNE,18,3.0,-999.0,-999,0.00,,,0.00,,2013-01-22 21:34:00,
2013-01-22 15:44:00,17.0,-99.9,-100.00,NNE,18,3.0,-999.0,-999,0.00,,,0.00,,2013-01-22 21:44:00,
2013-01-22 15:53:00,17.0,-99.9,-100.00,NNE,18,3.0,-999.0,-999,0.00,,,0.00,,2013-01-22 21:53:00,
2013-01-22 16:03:00,17.0,-99.9,-100.00,NE,55,2.0,-999.0,-999,0.00,,,0.00,,2013-01-22 22:03:00,
2013-01-22 16:13:00,17.0,-99.9,-100.00,NE,55,2.0,-999.0,-999,0.00,,,0.00,,2013-01-22 22:13:00,
2013-01-22 16:23:00,17.0,-99.9,-100.00,NE,55,2.0,-999.0,-999,0.00,,,0.00,,2013-01-22 22:23:00,
2013-01-22 16:33:00,17.0,-99.9,-100.00,NE,52,3.0,-999.0,-999,0.00,,,0.00,,2013-01-22 22:33:00,
2013-01-22 16:44:00,17.0,-99.9,-100.00,NE,52,3.0,-999.0,-999,0.00,,,0.00,,2013-01-22 22:44:00,
2013-01-22 16:53:00,17.0,-99.9,-100.00,NE,52,3.0,-999.0,-999,0.00,,,0.00,,2013-01-22 22:53:00,
2013-01-22 17:03:00,17.0,-99.9,-100.00,NE,51,1.0,-999.0,-999,0.00,,,0.00,,2013-01-22 23:03:00,
2013-01-22 17:13:00,17.0,-99.9,-100.00,NE,51,1.0,-999.0,-999,0.00,,,0.00,,2013-01-22 23:13:00,
2013-01-22 17:24:00,17.0,-99.9,-100.00,NE,51,1.0,-999.0,-999,0.00,,,0.00,,2013-01-22 23:24:00,
2013-01-22 17:34:00,17.0,-99.9,-100.00,ENE,68,3.0,-999.0,-999,0.00,,,0.00,,2013-01-22 23:34:00,
2013-01-22 17:43:00,17.0,-99.9,-100.00,ENE,68,3.0,-999.0,-999,0.00,,,0.00,,2013-01-22 23:43:00,
2013-01-22 17:53:00,17.0,-99.9,-100.00,ENE,68,3.0,-999.0,-999,0.00,,,0.00,,2013-01-22 23:53:00,
2013-01-22 18:03:00,17.0,-99.9,-100.00,NE,54,3.0,-999.0,-999,0.00,,,0.00,,2013-01-23 00:03:00,
2013-01-22 18:13:00,17.0,-99.9,-100.00,NE,54,3.0,-999.0,-999,0.00,,,0.00,,2013-01-23 00:13:00,
2013-01-22 18:23:00,17.0,-99.9,-100.00,NE,54,3.0,-999.0,-999,0.00,,,0.00,,2013-01-23 00:23:00,
2013-01-22 18:33:00,17.0,-99.9,-100.00,South,188,2.0,-999.0,-999,0.00,,,0.00,,2013-01-23 00:33:00,
2013-01-22 18:43:00,17.0,-99.9,-100.00,South,188,2.0,-999.0,-999,0.00,,,0.00,,2013-01-23 00:43:00,
2013-01-22 18:53:00,17.0,-99.9,-100.00,South,188,2.0,-999.0,-999,0.00,,,0.00,,2013-01-23 00:53:00,
2013-01-22 19:03:00,17.0,-99.9,-100.00,SSE,157,4.0,-999.0,-999,0.00,,,0.00,,2013-01-23 01:03:00,
2013-01-22 19:13:00,17.0,-99.9,-100.00,SSE,157,4.0,-999.0,-999,0.00,,,0.00,,2013-01-23 01:13:00,
2013-01-22 19:23:00,17.0,-99.9,-100.00,SSE,157,4.0,-999.0,-999,0.00,,,0.00,,2013-01-23 01:23:00,
2013-01-22 19:33:00,16.0,-99.9,-100.00,South,171,3.0,-999.0,-999,0.00,,,0.00,,2013-01-23 01:33:00,
2013-01-22 19:43:00,16.0,-99.9,-100.00,South,171,3.0,-999.0,-999,0.00,,,0.00,,2013-01-23 01:43:00,
2013-01-22 19:53:00,16.0,-99.9,-100.00,South,171,3.0,-999.0,-999,0.00,,,0.00,,2013-01-23 01:53:00,
2013-01-22 20:04:00,17.0,-99.9,-100.00,SSE,159,3.0,-999.0,-999,0.00,,,0.00,,2013-01-23 02:04:00,
2013-01-22 20:13:00,17.0,-99.9,-100.00,SSE,159,3.0,-999.0,-999,0.00,,,0.00,,2013-01-23 02:13:00,
2013-01-22 20:23:00,17.0,-99.9,-100.00,SSE,159,3.0,-999.0,-999,0.00,,,0.00,,2013-01-23 02:23:00,
2013-01-22 20:33:00,17.0,-99.9,-100.00,SSE,156,2.0,-999.0,-999,0.00,,,0.00,,2013-01-23 02:33:00,
2013-01-22 20:43:00,17.0,-99.9,-100.00,SSE,156,2.0,-999.0,-999,0.00,,,0.00,,2013-01-23 02:43:00,
2013-01-22 20:54:00,17.0,-99.9,-100.00,SSE,156,2.0,-999.0,-999,0.00,,,0.00,,2013-01-23 02:54:00,
2013-01-22 21:03:00,17.0,-99.9,-100.00,SW,216,3.0,-999.0,-999,0.00,,,0.00,,2013-01-23 03:03:00,
2013-01-22 21:13:00,17.0,-99.9,-100.00,SW,216,3.0,-999.0,-999,0.00,,,0.00,,2013-01-23 03:13:00,
2013-01-22 21:23:00,17.0,-99.9,-100.00,SW,216,3.0,-999.0,-999,0.00,,,0.00,,2013-01-23 03:23:00,
2013-01-22 21:33:00,17.0,-99.9,-100.00,South,171,2.0,-999.0,-999,0.00,,,0.00,,2013-01-23 03:33:00,
2013-01-22 21:43:00,17.0,-99.9,-100.00,South,171,2.0,-999.0,-999,0.00,,,0.00,,2013-01-23 03:43:00,
2013-01-22 21:53:00,17.0,-99.9,-100.00,South,171,2.0,-999.0,-999,0.00,,,0.00,,2013-01-23 03:53:00,
2013-01-22 22:04:00,17.0,-99.9,-100.00,East,81,2.0,-999.0,-999,0.00,,,0.00,,2013-01-23 04:04:00,
2013-01-22 22:13:00,17.0,-99.9,-100.00,East,81,2.0,-999.0,-999,0.00,,,0.00,,2013-01-23 04:13:00,
2013-01-22 22:23:00,17.0,-99.9,-100.00,East,81,2.0,-999.0,-999,0.00,,,0.00,,2013-01-23 04:23:00,
2013-01-22 22:33:00,16.0,-99.9,-100.00,NE,49,0.0,-999.0,-999,0.00,,,0.00,,2013-01-23 04:33:00,
2013-01-22 22:43:00,16.0,-99.9,-100.00,NE,49,0.0,-999.0,-999,0.00,,,0.00,,2013-01-23 04:43:00,
2013-01-22 22:53:00,16.0,-99.9,-100.00,NE,49,0.0,-999.0,-999,0.00,,,0.00,,2013-01-23 04:53:00,
2013-01-22 23:04:00,15.0,-99.9,-100.00,South,191,1.0,-999.0,-999,0.00,,,0.00,,2013-01-23 05:04:00,
2013-01-22 23:13:00,15.0,-99.9,-100.00,South,191,1.0,-999.0,-999,0.00,,,0.00,,2013-01-23 05:13:00,
2013-01-22 23:23:00,15.0,-99.9,-100.00,South,191,1.0,-999.0,-999,0.00,,,0.00,,2013-01-23 05:23:00,
2013-01-22 23:33:00,15.0,-99.9,-100.00,SSW,211,2.0,-999.0,-999,0.00,,,0.00,,2013-01-23 05:33:00,
2013-01-22 23:43:00,15.0,-99.9,-100.00,SSW,211,2.0,-999.0,-999,0.00,,,0.00,,2013-01-23 05:43:00,
2013-01-22 23:53:00,15.0,-99.9,-100.00,SSW,211,2.0,-999.0,-999,0.00,,,0.00,,2013-01-23 05:53:00,